"Pseudo-MPEC" for ZKA6D29

Created 2018 May 19 18:18:23 UT using Find_Orb

Click here for an explanation of pseudo-MPECs

 
 Astrometry: 
     ZKA6D29  C2018 05 16.30357 14 36 54.53 -03 38 22.6          21.4 GUNEOCPG96
     ZKA6D29  C2018 05 16.30874 14 36 54.06 -03 40 27.8          21.0 GUNEOCPG96
     ZKA6D29  C2018 05 16.31392 14 36 53.55 -03 42 34.6          21.2 GUNEOCPG96
     ZKA6D29  C2018 05 16.31909 14 36 53.02 -03 44 39.9          20.6 GUNEOCPG96
     ZKA6D29  C2018 05 16.40037 14 36 45.90 -04 17 15.4          19.4 GUNEOCPI52
     ZKA6D29  C2018 05 16.40148 14 36 45.84 -04 17 42.4          19.8 GUNEOCPI52
     ZKA6D29  C2018 05 16.40258 14 36 45.87 -04 18 06.1          19.4 GUNEOCPI52
     ZKA6D29  C2018 05 17.25510 14 36 42.88 -09 30 23.8                UNEOCPI52
     ZKA6D29  C2018 05 17.25655 14 36 42.69 -09 30 53.6                UNEOCPI52
     ZKA6D29  C2018 05 17.25799 14 36 42.62 -09 31 21.6                UNEOCPI52
     ZKA6D29 KC2018 05 17a_Astrometrya;#hOredacted;'J[-hv9#RKjlub?8WjLlAc/gJ(L01
     ZKA6D29 KC2018 05 17YmX`qmH_i;bAf,h;naT%QZqM`5\(7a0qseeTBWK5%0XtLT:NEOCPL01
     ZKA6D29  C2018 05 18.20543 14 36 35.34 -14 21 07.7          21.8 GUNEOCPI52
     ZKA6D29  C2018 05 18.20687 14 36 35.32 -14 21 32.3                UNEOCPI52
     ZKA6D29  C2018 05 18.20976 14 36 35.00 -14 22 20.9                UNEOCPI52
     ZKA6D29  C2018 05 19.20293 14 36 28.26 -18 33 02.1          21.4 GUNEOCPI52
     ZKA6D29  C2018 05 19.20624 14 36 28.06 -18 33 48.4          21.5 GUNEOCPI52
     ZKA6D29  C2018 05 19.21287 14 36 27.64 -18 35 20.3          21.4 GUNEOCPI52

Station data:
(G96) Mt. Lemmon Survey  (N32.442754 W110.788720)  US/Arizona.  Observers E.
   J. Christensen, A. R. Gibbs, A. D. Grauer, R. E. Hill, J. A. Johnson, R.
   A. Kowalski, S. M. Larson, F. C. Shelly. 1.5-m reflector + CCD.
(I52) Steward Observatory, Mt. Lemmon Station  (N32.442547 W110.788920)
   US/Arizona.
(L01) Višnjan Observatory, Tičan  (N45.290900 E13.749300)  Croatia.

Orbital elements:  ZKA6D29
   Perihelion 2018 Mar 14.440227 +/- 0.101 TT = 10:33:55 (JD 2458191.940227)
Epoch 2018 May 19.0 TT = JDT 2458257.5   Earth MOID: 0.0273   AutoNEOCP
M  47.72852 +/- 0.20                (J2000 ecliptic)
n   0.72801535 +/- 0.00199          Peri.  101.53960 +/- 0.056
a   1.22379597 +/- 0.00223          Node    56.51612 +/- 0.0033
e   0.2936951 +/- 0.00161           Incl.   11.44401 +/- 0.056
P   1.35/494.49d           H 27.0   G  0.15   U  8.6  
q 0.86437302 +/- 0.000398    Q 1.58321892 +/- 0.00485
From 18 observations 2018 May 16-19; mean residual 0".70
Residuals in arcseconds: 
180516 G96  .34-  .77+    180516 I52  1.0+  .25+    180518 I52  .34-  .23+    
180516 G96  .35+  1.3+    180517 I52  .31+  .25-    180518 I52  .96+  .23-    
180516 G96  .39+  .33+    180517 I52  .56-  .82-    180518 I52  .48-  .41-    
180516 G96  .05+  .47+    180517 I52  .33+  .21+    180519 I52  .34-  .35+    
180516 I52  .94-  1.7-    180517 L01  .16-  .11-    180519 I52  .03-  .16-    
180516 I52  .63-  2.2-    180517 L01  .05+  1.1+    180519 I52  .38+  .48-    

Ephemerides (geocentric):
Date (UTC) HH   RA              Dec         delta   r     elong  mag " sig PA
---- -- -- --  ------------   ------------  ------ ------ -----  --- ---- ---
2018 05 19 18  14 36 22.705   -20 29 51.71  .05253 1.0624 163.9 21.6  .72 150
2018 05 19 19  14 36 22.604   -20 38 26.30  .05274 1.0625 163.9 21.6  .71 150
2018 05 19 20  14 36 22.510   -20 46 56.93  .05294 1.0627 163.8 21.6  .71 149
2018 05 19 21  14 36 22.422   -20 55 23.63  .05314 1.0629 163.8 21.6  .71 149
2018 05 19 22  14 36 22.342   -21 03 46.43  .05335 1.0631 163.8 21.6  .71 149
2018 05 19 23  14 36 22.267   -21 12 05.38  .05356 1.0633 163.7 21.7  .70 148
2018 05 20 00  14 36 22.200   -21 20 20.51  .05376 1.0635 163.7 21.7  .70 148
2018 05 20 01  14 36 22.138   -21 28 31.86  .05397 1.0637 163.6 21.7  .70 147
2018 05 20 02  14 36 22.084   -21 36 39.47  .05417 1.0639 163.6 21.7  .70 147
2018 05 20 03  14 36 22.036   -21 44 43.37  .05438 1.0641 163.5 21.7  .69 147
2018 05 20 04  14 36 21.994   -21 52 43.60  .05459 1.0643 163.5 21.7  .69 146
2018 05 20 05  14 36 21.959   -22 00 40.18  .05480 1.0645 163.5 21.7  .69 146
2018 05 20 06  14 36 21.930   -22 08 33.17  .05500 1.0647 163.4 21.7  .68 145
2018 05 20 07  14 36 21.908   -22 16 22.59  .05521 1.0649 163.4 21.7  .68 145
2018 05 20 08  14 36 21.892   -22 24 08.47  .05542 1.0651 163.3 21.7  .68 145
2018 05 20 09  14 36 21.882   -22 31 50.85  .05563 1.0653 163.3 21.8  .68 144
2018 05 20 10  14 36 21.879   -22 39 29.77  .05584 1.0655 163.2 21.8  .67 144
2018 05 20 11  14 36 21.882   -22 47 05.25  .05605 1.0657 163.2 21.8  .67 144
2018 05 20 12  14 36 21.891   -22 54 37.33  .05626 1.0659 163.1 21.8  .67 143
2018 05 20 13  14 36 21.907   -23 02 06.04  .05647 1.0661 163.1 21.8  .66 143
2018 05 20 14  14 36 21.928   -23 09 31.41  .05668 1.0663 163.0 21.8  .66 143
2018 05 20 15  14 36 21.956   -23 16 53.48  .05689 1.0665 163.0 21.8  .66 142
2018 05 20 16  14 36 21.991   -23 24 12.28  .05710 1.0667 162.9 21.8  .65 142
2018 05 20 17  14 36 22.031   -23 31 27.83  .05731 1.0669 162.9 21.8  .65 142
2018 05 20 18  14 36 22.077   -23 38 40.17  .05752 1.0671 162.8 21.8  .65 141
2018 05 20 19  14 36 22.130   -23 45 49.33  .05774 1.0673 162.7 21.9  .64 141
2018 05 20 20  14 36 22.189   -23 52 55.34  .05795 1.0675 162.7 21.9  .64 141
2018 05 20 21  14 36 22.254   -23 59 58.23  .05816 1.0676 162.6 21.9  .64 140
2018 05 20 22  14 36 22.324   -24 06 58.02  .05837 1.0678 162.6 21.9  .63 140
2018 05 20 23  14 36 22.401   -24 13 54.75  .05859 1.0680 162.5 21.9  .63 140
2018 05 21 00  14 36 22.484   -24 20 48.45  .05880 1.0682 162.5 21.9  .62 139
2018 05 21 01  14 36 22.573   -24 27 39.14  .05901 1.0684 162.4 21.9  .62 139
2018 05 21 02  14 36 22.668   -24 34 26.85  .05923 1.0686 162.4 21.9  .62 139
2018 05 21 03  14 36 22.769   -24 41 11.61  .05944 1.0688 162.3 21.9  .61 138
2018 05 21 04  14 36 22.875   -24 47 53.45  .05966 1.0690 162.3 21.9  .61 138
2018 05 21 05  14 36 22.988   -24 54 32.40  .05987 1.0692 162.2 22.0  .60 138
2018 05 21 06  14 36 23.107   -25 01 08.48  .06009 1.0694 162.1 22.0  .60 137
2018 05 21 07  14 36 23.231   -25 07 41.71  .06030 1.0696 162.1 22.0  .60 137
2018 05 21 08  14 36 23.361   -25 14 12.14  .06052 1.0698 162.0 22.0  .59 137
2018 05 21 09  14 36 23.497   -25 20 39.77  .06073 1.0700 162.0 22.0  .59 136
2018 05 21 10  14 36 23.639   -25 27 04.64  .06095 1.0702 161.9 22.0  .58 136
2018 05 21 11  14 36 23.787   -25 33 26.78  .06117 1.0704 161.9 22.0  .58 136
2018 05 21 12  14 36 23.940   -25 39 46.20  .06138 1.0706 161.8 22.0  .58 136
2018 05 21 13  14 36 24.099   -25 46 02.94  .06160 1.0708 161.7 22.0  .57 135
2018 05 21 14  14 36 24.264   -25 52 17.01  .06182 1.0710 161.7 22.0  .57 135
2018 05 21 15  14 36 24.435   -25 58 28.45  .06204 1.0712 161.6 22.1  .56 135
2018 05 21 16  14 36 24.611   -26 04 37.27  .06225 1.0714 161.6 22.1  .56 134
2018 05 21 17  14 36 24.793   -26 10 43.51  .06247 1.0716 161.5 22.1  .55 134